Погода в Вежах

Россия / Калужская область     54°12′03″N   34°22′11″E
темп.,
°C
ветер,
м/с
пор.,
м/с
влажн.,
%
обл.,
%
осадки,
мм/ч
давл.,
гПа
погр.,
м
4 марта, чт
чт400:00−2зюз5128877 0.0 1014367
03:00−1зюз6138886 0.0 1012449
06:00−3зюз5129185 0.0 1009351
09:00−3зюз5129168 0.0 1006506
12:00−1зюз6990100 0.1 1004659
15:00−1зюз61091100 0.1 1003643
18:00−1з5996100 0.3 1002545
21:00−1сз3797100 0.7 1003367
5 марта, пт
пт500:00−4сз3392100 0.2 100559
03:00−7сз339169 0.2 100750
06:00−8сз33930 0.0 100942
09:00−7сз359612 0.0 1010174
12:00−3сз348575 0.0 1011611
15:00−2зсз237663 0.0 1012747
18:00−5зсз23820 0.0 101222
21:00−8з128421 0.0 101421
6 марта, сб
сб600:00−8юз238982 0.0 101530
03:00−7зюз349787 0.1 101590
06:00−9зюз249696 0.1 101587
09:00−8ссз499495 0.1 1017435
12:00−5ссз6982100 0.1 10181005
15:00−5сз5777100 0.2 10181086
18:00−7зсз358186 0.1 1019147
21:00−9зюз478743 0.1 1019143
7 марта, вс
вс700:00−7зюз6138253 0.0 1017410
03:00−6юз7158077 0.0 1013671
06:00−5юз81780100 0.0 1008951
09:00−4зюз101892100 0.7 10031124
12:00−2зюз111990100 1.5 10011316
15:00−4сз61276100 3.1 10021318
18:00−5з5117081 0.0 1003290
21:00−7зюз5118541 0.0 1003254
8 марта, пн
пн800:00−7зюз5128922 0.0 1002381
03:00−7з6158526 0.0 1002730
06:00−8сз6138596 0.1 1004650
09:00−10сз5118448 0.1 1007499
12:00−7сз58740 0.0 1009848
15:00−6зсз56730 0.0 10101095
18:00−8зсз368597 0.1 1011186
21:00−10сз369597 0.1 1014221